Location: Little Baddow
(51.7333°N, 0.5667°E)
Time: 01:51:10
(UTC+00:00)

Cosmos 1378 Rocket - Pass Details

Date: 08 November 2025
Orbit: 595 x 619 km, 82.5° (Epoch: 13 December)

Event Time Altitude Azimuth Distance (km) Brightness Sun altitude
Rises 06:13:57 0° 185° (S) 2,832 7.1 -8.1°
Reaches altitude 10° 06:16:09 10° 184° (S) 1,933 6.3 -7.8°
Maximum altitude 06:20:25 77° 98° (E) 618 3.7 -7.2°
Drops below altitude 10° 06:24:43 10° 13° (NNE) 1,945 6.1 -6.5°
Sets 06:26:56 0° 12° (NNE) 2,853 6.9 -6.2°
